This is the latest recevied weather packets stored in our database for station/object WC4PEM-7. If no packets are shown the sender has not sent any weather packets the latest 10 day(s).
| Time | Temp. | Humidity | Pressure | Rain* | Wind** | Luminosity | Snow |
|---|---|---|---|---|---|---|---|
| 1787425809 | 33.89° C | 61% | 1015.4 hPa | 0 mm | - | - | - |
| 1787425509 | 33.89° C | 62% | 1015.5 hPa | 0 mm | - | - | - |
| 1787425209 | 33.89° C | 60% | 1015.4 hPa | 0 mm | - | - | - |
| 1787424909 | 33.89° C | 60% | 1015.4 hPa | 0 mm | - | - | - |
| 1787424609 | 33.89° C | 59% | 1015.5 hPa | 0 mm | - | - | - |
| 1787424309 | 33.89° C | 58% | 1015.5 hPa | 0 mm | - | - | - |
| 1787424131 | 34.44° C | 58% | 1015.6 hPa | 0 mm | - | - | - |
| 1787424009 | 34.44° C | 58% | 1015.6 hPa | 0 mm | - | - | - |
| 1787423709 | 34.44° C | 58% | 1015.6 hPa | 0 mm | - | - | - |
| 1787423409 | 34.44° C | 56% | 1015.7 hPa | 0 mm | - | - | - |
| 1787423109 | 33.89° C | 57% | 1015.8 hPa | 0 mm | - | - | - |
| 1787422809 | 33.89° C | 57% | 1015.8 hPa | 0 mm | - | - | - |
| 1787422577 | 34.44° C | 57% | 1015.7 hPa | 0 mm | - | - | - |
| 1787422509 | 34.44° C | 57% | 1015.7 hPa | 0 mm | - | - | - |
| 1787422315 | 33.89° C | 59% | 1015.7 hPa | 0 mm | - | - | - |
| 1787422209 | 33.89° C | 59% | 1015.7 hPa | 0 mm | - | - | - |
| 1787421909 | 34.44° C | 58% | 1015.7 hPa | 0 mm | - | - | - |
| 1787421609 | 34.44° C | 56% | 1015.9 hPa | 0 mm | - | - | - |
| 1787421402 | 34.44° C | 62% | 1016 hPa | 0 mm | - | - | - |
| 1787421309 | 34.44° C | 62% | 1016 hPa | 0 mm | - | - | - |
| 1787421009 | 34.44° C | 59% | 1016.1 hPa | 0 mm | - | - | - |
| 1787420833 | 34.44° C | 61% | 1016 hPa | 0 mm | - | - | - |
| 1787420709 | 34.44° C | 61% | 1016 hPa | 0 mm | - | - | - |
| 1787420409 | 33.89° C | 63% | 1016.2 hPa | 0 mm | - | - | - |
| 1787420182 | 33.89° C | 62% | 1016.3 hPa | 0 mm | - | - | - |
* Rain latest hour (hover to see other rain measurements)
** Current wind speed in m/s (hover to see current wind gust speed)